Weather Roundup
Issued by NWS Chicago, IL

Home | Current Version | Previous Version | Graphics & Text | Print | Product List | Glossary On
Versions: 1 2 3 4 5 6 7 8 9 10 11 12 13 14 15 16 17 18 19 20 21 22 23 24 25 26 27 28 29 30 31 32 33 34 35 36 37 38 39 40 41 42 43 44 45 46 47 48 49 50
000
NZUS59 KLOT 242103
HRRLOT

CHICAGO AREA WEATHER ROUNDUP
NATIONAL WEATHER SERVICE CHICAGO/ROMEOVILLE IL
400 PM CDT MON APR 24 2017

NOTE: "FAIR" INDICATES FEW OR NO CLOUDS BELOW 12,000 FEET WITH NO
SIGNIFICANT WEATHER AND/OR OBSTRUCTIONS TO VISIBILITY.

* THESE STATIONS ARE NOT UNDER NWS QUALITY CONTROL. THEY ALSO MAY NOT
  REPORT WEATHER SUCH AS PRECIPITATION OR FOG.

ILZ005-006-012>014-019>023-242200-
NORTHEAST ILLINOIS

CITY           SKY/WX    TMP DP  RH WIND       PRES   REMARKS
OHARE          PTSUNNY   72  30  21 E13       29.84F
MIDWAY         PTSUNNY   71  33  24 E12       29.85F
AURORA         SUNNY     75  31  19 SE17      29.83F
LANSING*       SUNNY     71  43  36 NE8       29.84F
JOLIET*        SUNNY     75  33  21 SE8G17    29.83F
WAUKEGAN       MOSUNNY   64  34  32 E9        29.86F
DUPAGE AIRPORT SUNNY     74  31  20 SE10      29.83F
WHEELING       MOSUNNY   69  31  24 E9        29.87F
KANKAKEE*      SUNNY     77  27  16 SE12G18   29.82F
MORRIS*        SUNNY     76  26  16 SE8G20    29.81F
NORTHERLY ISL    N/A     59  39  47 N7          N/A
$$

WIZ051-052-058>065-066-070>072-242200-
SOUTHEAST WISCONSIN

CITY           SKY/WX    TMP DP  RH WIND       PRES   REMARKS
MILWAUKEE      CLOUDY    64  33  31 SE13      29.88F
KENOSHA*       CLOUDY    66  32  28 SE13      29.87F
RACINE*        MOSUNNY   64  32  30 SE7       29.89F
WAUKESHA       SUNNY     66  28  24 SE17      29.87F
WEST BEND      CLOUDY    66  30  26 SE16      29.86F
$$

INZ001>003-010>013-019-020-242200-
NORTHWEST INDIANA

CITY           SKY/WX    TMP DP  RH WIND       PRES   REMARKS
GARY*          PTSUNNY   66  32  28 E12       29.87F
MICHIGAN CITY* NOT AVBL
RENSSELAER*    NOT AVBL
VALPARAISO     SUNNY     76  29  17 SE9       29.85F
$$

LMZ740>746-242200-
SOUTHERN LAKE MICHIGAN

STATION/POSITION TIME  SKY/WX   TEMP WIND        PRES    VSBY
                                AIR  DIR/SP/G
                 (UTC)          (F)  (DEG/KT/KT) (MB)    (MI)
HARRISON CRIB    2030            50  360/  5/  5   N/A
BURNHAM HARBOR   2100            60   10/  7       N/A
CALUMET HARBOR   2030            58   30/  8/ 10 1011.0F
BURNS HARBOR     2040            56   80/  6/ 10 1011.9F
MICHIGAN CITY    2040            54   20/ 12/ 15   N/A
$$

ABBREVIATIONS USED IN REMARKS
   TC - TEMPERATURE IN CELSIUS
  WCI - WIND CHILL INDEX
   HX - HEAT INDEX
  VSB - VISIBILITY
$$




USA.gov is the U.S. government's official web portal to all federal, state and local government web resources and services.